WetterOnline ( https://www.wetteronline.de )

Wetter aktuell Ratingen

Aktuelles Wetter: Essen (161m)

6-stündlich | Neueste Meldungen
Ortszeit Temperatur Wetter
Mi, 04.08. 14:00 19.8° C bewölkt
Mi, 04.08. 8:00 14.2° C bedeckt
Mi, 04.08. 2:00 14.7° C bewölkt
Di, 03.08. 20:00 17.8° C wolkig
Di, 03.08. 14:00 17.3° C bewölkt
Di, 03.08. 8:00 12.7° C bedeckt
Di, 03.08. 2:00 12.5° C fast wolkenlos
Mo, 02.08. 20:00 14.3° C bedeckt
Ortszeit Temperatur Wetter
Mi, 04.08. 19:00 20.2° C wolkenlos
Mi, 04.08. 18:50 20.2° C wolkenlos
Mi, 04.08. 18:40 20.3° C wolkenlos
Mi, 04.08. 18:30 20.5° C wolkenlos
Mi, 04.08. 18:20 20.5° C wolkenlos
Mi, 04.08. 18:10 20.6° C leicht bewölkt
Mi, 04.08. 18:00 20.9° C bewölkt
Mi, 04.08. 17:30 20.6° C leicht bewölkt
Mi, 04.08. 17:00 20.8° C wolkig
Mi, 04.08. 16:30 19.1° C wolkig
Mi, 04.08. 16:00 20.6° C bewölkt
Ortszeit Relative Feuchte Sichtweite
Mi, 04.08. 14:00 60% 55 km
Mi, 04.08. 8:00 92% 22 km
Mi, 04.08. 2:00 86% 35 km
Di, 03.08. 20:00 63% 50 km
Di, 03.08. 14:00 63% 55 km
Di, 03.08. 8:00 93% 15 km
Di, 03.08. 2:00 88% 20 km
Mo, 02.08. 20:00 93% 22 km
Ortszeit Relative Feuchte Sichtweite
Mi, 04.08. 19:00 66% 40 km
Mi, 04.08. 18:50 66% -
Mi, 04.08. 18:40 63% -
Mi, 04.08. 18:30 60% 45 km
Mi, 04.08. 18:20 60% -
Mi, 04.08. 18:10 59% -
Mi, 04.08. 18:00 63% 50 km
Mi, 04.08. 17:30 63% 45 km
Mi, 04.08. 17:00 62% 30 km
Mi, 04.08. 16:30 66% 35 km
Mi, 04.08. 16:00 61% 50 km
Ortszeit Niederschlagsmenge Niederschlagsart
Mi, 04.08. 14:00 0.0 l/m2 in 6 Std. -
Mi, 04.08. 8:00 0.1 l/m2 in 12 Std. -
Mi, 04.08. 2:00 0.1 l/m2 in 6 Std. Regen
Di, 03.08. 20:00 0.1 l/m2 in 12 Std. -
Di, 03.08. 14:00 0.1 l/m2 in 6 Std. Regen
Di, 03.08. 8:00 0.6 l/m2 in 12 Std. Regen
Di, 03.08. 2:00 0.1 l/m2 in 6 Std. -
Mo, 02.08. 20:00 0.1 l/m2 in 12 Std. Regen
Ortszeit Niederschlagsmenge Niederschlagsart
Mi, 04.08. 19:00 0.0 l/m2 in 1 Std. -
Mi, 04.08. 18:50 keine Meldung -
Mi, 04.08. 18:40 keine Meldung -
Mi, 04.08. 18:30 0.0 l/m2 in 1 Std. -
Mi, 04.08. 18:20 keine Meldung -
Mi, 04.08. 18:10 keine Meldung -
Mi, 04.08. 18:00 0.0 l/m2 in 1 Std. -
Mi, 04.08. 17:30 0.0 l/m2 in 1 Std. -
Mi, 04.08. 17:00 0.0 l/m2 in 1 Std. -
Mi, 04.08. 16:30 0.0 l/m2 in 1 Std. -
Mi, 04.08. 16:00 0.0 l/m2 in 1 Std. -
Ortszeit Stärke Spitze Richtung
km/h Bft. km/h Grad Sektor
Mi, 04.08. 14:00 7 2 32 360° N
Mi, 04.08. 8:00 4 1 11 170° S
Mi, 04.08. 2:00 6 1 19 340° N
Di, 03.08. 20:00 11 2 25 20° N
Di, 03.08. 14:00 7 2 18 80° O
Di, 03.08. 8:00 6 1 13 130° SO
Di, 03.08. 2:00 7 2 11 180° S
Mo, 02.08. 20:00 4 1 25 180° S
Ortszeit Stärke Spitze Richtung
km/h Bft. km/h Grad Sektor
Mi, 04.08. 19:00 9 2 19 90° O
Mi, 04.08. 18:50 9 2 - 90° O
Mi, 04.08. 18:40 7 2 - 70° O
Mi, 04.08. 18:30 7 2 14 40° NO
Mi, 04.08. 18:20 7 2 - 40° NO
Mi, 04.08. 18:10 6 1 - 40° NO
Mi, 04.08. 18:00 6 1 13 80° O
Mi, 04.08. 17:30 6 1 13 50° NO
Mi, 04.08. 17:00 7 2 18 350° N
Mi, 04.08. 16:30 9 2 19 260° W
Mi, 04.08. 16:00 6 1 11 160° S
Ortszeit Untergrenze Bedeckung Gattung
total tief tief mittel hoch
Mi, 04.08. 14:00 1110 m 7/8 7/8 - - -
Mi, 04.08. 8:00 1110 m 8/8 8/8 - - -
Mi, 04.08. 2:00 960 m 7/8 7/8 - - -
Di, 03.08. 20:00 1020 m 7/8 5/8 - - -
Di, 03.08. 14:00 1140 m 7/8 7/8 - - -
Di, 03.08. 8:00 2100 m 8/8 8/8 - - -
Di, 03.08. 2:00 9000 m 2/8 0/8 - - -
Mo, 02.08. 20:00 1800 m 8/8 8/8 - - -
Ortszeit Bedeckungsgrad in Achtel und Wolkenuntergrenze
Mi, 04.08. 19:00 keine Wolken
Mi, 04.08. 18:50 keine Wolken
Mi, 04.08. 18:40 keine Wolken
Mi, 04.08. 18:30 keine Wolken
Mi, 04.08. 18:20 keine Wolken
Mi, 04.08. 18:10 2(2400m)
Mi, 04.08. 18:00 7(2400m)
Mi, 04.08. 17:30 3(2400m)
Mi, 04.08. 17:00 3(1170m) 6(3000m) 4(3300m)
Mi, 04.08. 16:30 2(1290m) 7(3300m) 7(3900m)
Mi, 04.08. 16:00 2(1500m) 7(2700m) 7(3900m)
Ortszeit Luftdruck NN (hPa) Tendenz (hPa in 3 Std.)
Mi, 04.08. 14:00 1013 - 0,7
Mi, 04.08. 8:00 1014 + 0,8
Mi, 04.08. 2:00 1014 + 0,2
Di, 03.08. 20:00 1012 + 0,1
Di, 03.08. 14:00 1013 - 0,5
Di, 03.08. 8:00 1014 - 0,4
Di, 03.08. 2:00 1015 - 0,2
Mo, 02.08. 20:00 1015 + 0,4
Ortszeit Luftdruck NN (hPa) Tendenz (hPa in 3 Std.)
Mi, 04.08. 19:00 1012 - 0,8
Mi, 04.08. 18:50 1012 keine Meldung
Mi, 04.08. 18:40 1012 keine Meldung
Mi, 04.08. 18:30 1012 - 0,6
Mi, 04.08. 18:20 1012 keine Meldung
Mi, 04.08. 18:10 1012 keine Meldung
Mi, 04.08. 18:00 1012 - 0,4
Mi, 04.08. 17:30 1012 - 0,4
Mi, 04.08. 17:00 1012 - 0,4
Mi, 04.08. 16:30 1013 - 0,5
Mi, 04.08. 16:00 1013 - 0,6
Ortszeit Schneehöhe (cm)
Mi, 04.08. 14:00 -
Mi, 04.08. 8:00 -
Mi, 04.08. 2:00 -
Di, 03.08. 20:00 -
Di, 03.08. 14:00 -
Di, 03.08. 8:00 -
Di, 03.08. 2:00 -
Mo, 02.08. 20:00 -
Ortszeit Schneehöhe (cm)
Mi, 04.08. 19:00 -
Mi, 04.08. 18:50 -
Mi, 04.08. 18:40 -
Mi, 04.08. 18:30 -
Mi, 04.08. 18:20 -
Mi, 04.08. 18:10 -
Mi, 04.08. 18:00 -
Mi, 04.08. 17:30 -
Mi, 04.08. 17:00 -
Mi, 04.08. 16:30 -
Mi, 04.08. 16:00 -
Link zu dieser Seite / Seite empfehlen

Das Wetter in ...